Regional Weather Roundup
Issued by NWS

Home | Current Version | Previous Version | Text Only | Print | Product List | Glossary On
Versions: 1 2 3 4 5 6 7 8 9 10 11 12 13 14 15 16 17 18 19 20 21 22 23 24 25 26 27 28 29 30 31 32 33 34 35 36 37 38 39 40 41 42 43 44 45 46 47 48 49 50
506
ASUS42 KFFC 120110
RWRGA
WEATHER ROUNDUP FOR GEORGIA
NATIONAL WEATHER SERVICE PEACHTREE CITY GA
800 PM EST MON DEC 11 2017

NOTE: "FAIR" INDICATES FEW OR NO CLOUDS BELOW 12,000 FEET WITH NO
SIGNIFICANT WEATHER AND/OR OBSTRUCTIONS TO VISIBILITY.

* = USE WITH CAUTION. THE STATIONS MARKED WITH AN ASTERISK MAY NOT
REPORT WEATHER SUCH AS PRECIPITATION, FOG, OR THUNDER AND ARE NOT
QUALITY CONTROLLED BY NWS.

THE REMARK "TC" DENOTES TEMPERATURE READING IN DEGREES CELSIUS.

GAZ001>058-120200-
NORTH GEORGIA

CITY           SKY/WX    TMP DP  RH WIND       PRES   REMARKS
ATLANTA        PTCLDY    50  34  54 SW8       30.01F
ATHENS         CLEAR     45  34  65 W5        30.00S
CHAMBLEE       CLEAR     44  32  62 SW7       30.01S
PEACHTREE CITY CLEAR     42  36  79 CALM      30.03F
ROME           CLEAR     41  36  82 W5        29.99S
WEST ATLANTA   CLEAR     43  36  76 CALM      30.01S
GAINESVILLE    CLEAR     46  32  58 SW7       30.00S
CARTERSVILLE   CLEAR     36  34  92 CALM      30.01F


CITY           SKY/WX    TMP DP  RH WIND       PRES   REMARKS
DALTON*        CLEAR     45  34  65 CALM      30.00F
LAWRENCEVILLE* CLEAR     45  32  60 SW6       30.00
MARIETTA       CLEAR     43  31  62 SW6       30.00S
KENNESAW*      CLEAR     46  32  58 SW5       30.02S
CANTON*        CLEAR     41  34  75 CALM      30.01S
$$

GAZ059>098-102>109-120200-
CENTRAL GEORGIA

CITY           SKY/WX    TMP DP  RH WIND       PRES   REMARKS
AUGUSTA-BUSH   CLEAR     42  36  79 CALM      30.03F
AUGUSTA-DANIEL CLEAR     51  35  54 S6        30.03F
COLUMBUS       CLEAR     54  34  46 W5        30.05F
MACON          CLEAR     51  37  58 SW6       30.05S
ROBINS AFB     CLEAR     51  36  56 S6        30.04F


CITY           SKY/WX    TMP DP  RH WIND       PRES   REMARKS
LAGRANGE*      CLEAR     42  37  80 CALM      30.04S
SYLVANIA*      CLEAR     48  40  74 CALM      30.07F
MILLEDGEVILLE* CLEAR     46  39  76 CALM      30.03F
$$

GAZ099>101-110>166-120200-
SOUTH GEORGIA

CITY           SKY/WX    TMP DP  RH WIND       PRES   REMARKS
SAVANNAH       CLEAR     49  38  65 SW8       30.09S
VALDOSTA       CLEAR     49  37  63 S5        30.13S
ALMA           CLEAR     45  39  79 CALM      30.10S
ST SIMONS      CLEAR     54  39  57 SW9       30.11F
FT STEWART     CLEAR     44  40  84 CALM      30.08S
ALBANY         CLEAR     50  37  61 SW6       30.10F
HUNTER AFB     CLEAR     50  37  61 S6        30.06F
MOODY AFB      CLEAR     49  37  63 SW8       30.11S
BRUNSWICK      CLEAR     48  36  61 SW6       30.12S


CITY           SKY/WX    TMP DP  RH WIND       PRES   REMARKS
BAINBRIDGE*    CLOUDY    52  41  66 SW6       30.11F
MOULTRIE*      CLEAR     50  37  62 S5        30.11F
VIDALIA*       CLEAR     48  39  71 SW5       30.08F
WAYCROSS*      CLEAR     47  37  67 CALM      30.11S
DOUGLAS*       CLEAR     46  37  71 CALM      30.11F
$$




USA.gov is the U.S. government's official web portal to all federal, state and local government web resources and services.